Monroe, MI

10:50 AM EDT on March 27, 2017 (GMT -0400)
Custer

Weather History for KTTF - November, 2011

Change the Weather History Date:

Wednesday, November 23, 2011

  Actual Average Record
Temperature  
Mean Temperature 44 °F -  
Max Temperature 51 °F 43 °F 74 °F (1931)
Min Temperature 37 °F 30 °F 9 °F (1956)
Degree Days  
Heating Degree Days 21    
Moisture  
Dew Point 37 °F    
Average Humidity 85    
Maximum Humidity 100    
Minimum Humidity 47    
Precipitation  
Precipitation 0.00 in - - ()
Sea Level Pressure  
Sea Level Pressure 30.04 in    
Wind  
Wind Speed 11 mph (WNW)    
Max Wind Speed 20 mph    
Max Gust Speed 24 mph    
Visibility 9 miles    
Events Rain    
Averages and records for this station are not official NWS values.
T = Trace of Precipitation, MM = Missing Value Source: NWS Daily Summary

Daily Weather History Graph

Daily Weather History Graph

Search for Another Location

Airport or City:

Trip Planner

Search our weather history database for the weather conditions in past years. The results will help you decide how hot, cold, wet, or windy it might be!

Date:

Astronomy

Nov. 23, 2011 Rise Set
Actual Time 7:32 AM EST 5:07 PM EST
Civil Twilight 7:02 AM EST 5:37 PM EST
Nautical Twilight 6:27 AM EST 6:11 PM EST
Astronomical Twilight 5:54 AM EST 6:45 PM EST
Moon 5:35 AM EST (11/23) 3:48 PM EST (11/23)
Length of Visible Light 10h 35m
Length of Day
9h 34m
Waning Crescent, 4% of the Moon is Illuminated
Nov 23
Waning Crescent
Nov 25
New
Dec 2
First Quarter
Dec 10
Full
Dec 17
Last Quarter

Hourly Weather History & Observations

Time (EST) Temp. Windchill Dew Point Humidity Pressure Visibility Wind Dir Wind Speed Gust Speed Precip Events Conditions
12:13 AM 39.2 °F 30.8 °F 39.2 °F 100% 29.75 in 5.0 mi North 15.0 mph 18.4 mph N/A Rain Rain
12:33 AM 39.2 °F 30.8 °F 39.2 °F 100% 29.75 in 3.0 mi North 15.0 mph - N/A Rain Light Rain
1:13 AM 39.2 °F 32.0 °F 39.2 °F 100% 29.77 in 3.0 mi NNW 11.5 mph - N/A Rain Rain
1:33 AM 39.2 °F 33.0 °F 39.2 °F 100% 29.78 in 4.0 mi NNW 9.2 mph 17.3 mph N/A Rain Rain
1:54 AM 39.2 °F 32.0 °F 39.2 °F 100% 29.79 in 5.0 mi NNW 11.5 mph 16.1 mph N/A Rain Rain
2:14 AM 39.2 °F 33.0 °F 39.2 °F 100% 29.80 in 5.0 mi NNW 9.2 mph - N/A Rain Rain
2:54 AM 39.2 °F 30.8 °F 39.2 °F 100% 29.82 in 7.0 mi NNW 15.0 mph 18.4 mph N/A Rain Light Rain
3:14 AM 39.2 °F 32.0 °F 39.2 °F 100% 29.83 in 10.0 mi NNW 11.5 mph 18.4 mph N/A Rain Light Rain
3:34 AM 39.2 °F 32.0 °F 39.2 °F 100% 29.84 in 10.0 mi NNW 11.5 mph - N/A   Overcast
3:55 AM 39.2 °F 29.6 °F 39.2 °F 100% 29.86 in 10.0 mi NNW 19.6 mph 24.2 mph N/A   Overcast
4:15 AM 39.2 °F 31.6 °F 39.2 °F 100% 29.88 in 10.0 mi NNW 12.7 mph 23.0 mph N/A   Overcast
4:35 AM 39.2 °F 30.8 °F 39.2 °F 100% 29.89 in 10.0 mi NNW 15.0 mph 24.2 mph N/A   Overcast
4:55 AM 39.2 °F 31.2 °F 39.2 °F 100% 29.91 in 10.0 mi NNW 13.8 mph 19.6 mph N/A   Overcast
5:10 AM 39.2 °F 31.2 °F 39.2 °F 100% 29.92 in 10.0 mi NNW 13.8 mph - N/A   Overcast
5:30 AM 39.2 °F 31.2 °F 39.2 °F 100% 29.93 in 10.0 mi NNW 13.8 mph 19.6 mph N/A   Mostly Cloudy
5:51 AM 39.2 °F 31.2 °F 39.2 °F 100% 29.94 in 10.0 mi NNW 13.8 mph 19.6 mph N/A   Scattered Clouds
6:11 AM 39.2 °F 30.8 °F 39.2 °F 100% 29.96 in 10.0 mi NNW 15.0 mph 19.6 mph N/A   Scattered Clouds
6:31 AM 39.2 °F 32.0 °F 39.2 °F 100% 29.97 in 10.0 mi NW 11.5 mph - N/A   Clear
6:51 AM 39.2 °F 33.0 °F 39.2 °F 100% 29.98 in 10.0 mi NW 9.2 mph - N/A   Clear
7:31 AM 39.2 °F 33.6 °F 39.2 °F 100% 30.01 in 10.0 mi NW 8.1 mph - N/A   Mostly Cloudy
7:52 AM 37.4 °F 30.3 °F 37.4 °F 100% 30.03 in 10.0 mi NW 10.4 mph - N/A   Scattered Clouds
8:12 AM 37.4 °F 31.4 °F 37.4 °F 100% 30.04 in 10.0 mi NW 8.1 mph - N/A   Clear
8:32 AM 37.4 °F 30.8 °F 37.4 °F 100% 30.05 in 10.0 mi NW 9.2 mph - N/A   Clear
8:52 AM 37.4 °F 31.4 °F 37.4 °F 100% 30.06 in 10.0 mi NW 8.1 mph - N/A   Clear
9:32 AM 39.2 °F 33.6 °F 39.2 °F 100% 30.07 in 10.0 mi NW 8.1 mph - N/A   Clear
9:53 AM 39.2 °F 33.0 °F 39.2 °F 100% 30.08 in 10.0 mi NW 9.2 mph - N/A   Clear
10:13 AM 41.0 °F 35.2 °F 39.2 °F 93% 30.09 in 10.0 mi NW 9.2 mph - N/A   Clear
10:33 AM 42.8 °F 37.5 °F 39.2 °F 87% 30.10 in 10.0 mi NW 9.2 mph - N/A   Clear
10:53 AM 42.8 °F 38.0 °F 37.4 °F 81% 30.10 in 10.0 mi NW 8.1 mph - N/A   Clear
11:13 AM 44.6 °F 40.2 °F 37.4 °F 76% 30.10 in 10.0 mi NW 8.1 mph - N/A   Clear
11:34 AM 44.6 °F 41.4 °F 37.4 °F 76% 30.11 in 10.0 mi NW 5.8 mph - N/A   Clear
11:54 AM 46.4 °F 42.4 °F 37.4 °F 71% 30.11 in 10.0 mi NNW 8.1 mph - N/A   Clear
12:14 PM 46.4 °F 42.9 °F 35.6 °F 66% 30.11 in 10.0 mi WNW 6.9 mph - N/A   Clear
12:34 PM 46.4 °F 42.9 °F 33.8 °F 62% 30.11 in 10.0 mi NW 6.9 mph - N/A   Clear
12:54 PM 48.2 °F - 35.6 °F 62% 30.11 in 10.0 mi WNW 8.1 mph - N/A   Clear
1:14 PM 50.0 °F - 35.6 °F 58% 30.11 in 10.0 mi WNW 8.1 mph - N/A   Clear
1:35 PM 51.8 °F - 33.8 °F 50% 30.11 in 10.0 mi NW 6.9 mph - N/A   Clear
1:55 PM 51.8 °F - 33.8 °F 50% 30.12 in 10.0 mi WNW 6.9 mph - N/A   Clear
2:15 PM 51.8 °F - 33.8 °F 50% 30.12 in 10.0 mi WNW 6.9 mph - N/A   Clear
2:35 PM 51.8 °F - 32.0 °F 47% 30.12 in 10.0 mi WNW 6.9 mph - N/A   Clear
3:31 PM 51.8 °F - 33.8 °F 50% 30.13 in 10.0 mi West 9.2 mph - N/A   Clear
3:51 PM 51.8 °F - 33.8 °F 50% 30.13 in 10.0 mi West 9.2 mph - N/A   Clear
4:11 PM 51.8 °F - 33.8 °F 50% 30.13 in 10.0 mi West 6.9 mph - N/A   Clear
4:31 PM 50.0 °F - 35.6 °F 58% 30.13 in 10.0 mi West 5.8 mph - N/A   Clear
4:51 PM 46.4 °F 44.3 °F 35.6 °F 66% 30.13 in 10.0 mi West 4.6 mph - N/A   Clear
5:11 PM 44.6 °F 42.2 °F 35.6 °F 71% 30.13 in 10.0 mi WSW 4.6 mph - N/A   Clear
5:32 PM 42.8 °F 40.1 °F 35.6 °F 76% 30.13 in 10.0 mi WSW 4.6 mph - N/A   Clear
5:52 PM 42.8 °F 41.1 °F 35.6 °F 76% 30.13 in 10.0 mi SW 3.5 mph - N/A   Clear
7:12 PM 39.2 °F 37.0 °F 35.6 °F 87% 30.15 in 10.0 mi SW 3.5 mph - N/A   Clear
7:33 PM 39.2 °F 37.0 °F 35.6 °F 87% 30.16 in 10.0 mi WSW 3.5 mph - N/A   Clear
8:13 PM 41.0 °F - 35.6 °F 81% 30.17 in 10.0 mi Calm Calm - N/A   Clear
8:33 PM 39.2 °F 37.0 °F 35.6 °F 87% 30.17 in 10.0 mi SW 3.5 mph - N/A   Clear
8:53 PM 37.4 °F 34.9 °F 35.6 °F 93% 30.18 in 10.0 mi SW 3.5 mph - N/A   Clear
9:34 PM 39.2 °F 35.9 °F 35.6 °F 87% 30.18 in 10.0 mi WSW 4.6 mph - N/A   Clear
10:14 PM 39.2 °F 33.6 °F 35.6 °F 87% 30.18 in 10.0 mi WSW 8.1 mph - N/A   Clear
10:34 PM 39.2 °F 33.6 °F 37.4 °F 93% 30.18 in 10.0 mi WSW 8.1 mph - N/A   Clear
10:54 PM 39.2 °F 33.0 °F 37.4 °F 93% 30.19 in 10.0 mi WSW 9.2 mph - N/A   Clear
11:15 PM 39.2 °F 33.6 °F 39.2 °F 100% 30.19 in 10.0 mi WSW 8.1 mph - N/A   Clear
11:35 PM 39.2 °F 33.6 °F 39.2 °F 100% 30.19 in 7.0 mi WSW 8.1 mph - N/A   Clear
11:55 PM 39.2 °F 34.2 °F 39.2 °F 100% 30.20 in 5.0 mi WSW 6.9 mph - N/A   Clear